Location: Newark
(34.6283°N, 36.0776°E)
Time: 18:45:30
(UTC+00:00)

A-11 Canister half - Pass Details

Date: 21 September 2019
Orbit: 1527 x 1682 km, 47.3° (Epoch: 22 October)

Event Time Altitude Azimuth Distance (km) Brightness Sun altitude
Rises 23:52:31 0° 212° (SSW) 4,663 - -41.1°
Reaches altitude 10° 23:55:37 10° 208° (SSW) 3,686 - -40.6°
Maximum altitude 00:04:32 53° 134° (SE) 1,840 - -39.2°
Exits shadow 00:04:53 53° 127° (SE) 1,846 9.3 -39.1°
Drops below altitude 10° 00:13:38 10° 61° (ENE) 3,772 11.8 -37.6°
Sets 00:16:50 0° 57° (ENE) 4,779 12.6 -37.1°
